ROMMA est une association bénévole à but non lucratif. Votre soutien est indispensable : ADHERER à ROMMA ou FAIRE un DON

Chambon - (38, Isère)

Oisans (2460 m)   Longitude: 06° 10' 42" E   Latitude: 45° 01' 32" N Station partenaire n°803
 

Détail journalier du     <<     >>

Température Humidité Vent Dir Rafale Dir. rafale Neige 1 Neige 2
Heure (°C) (%) (km/h) (km/h) (cm) (cm)
01:00 -6.0932ESE4ESE189236
02:00 -4.9746NE9NE189236
03:00 -5.6713NNE10NNE189236
04:00 -5.7784NNE8NNE189236
05:00 -6.2672OSO5OSO189236
06:00 -6.4611SO5SO189236
07:00 -5.7453SO8SO189235
08:00 -4.9274SSO8SO189235
09:00 -1.7182SSO5SSO189235
10:00 1.3191NNE4NNE188235
11:00 -2.4235OSO12OSO189236
12:00 -1.2267SO11SO189235
13:00 -0.4336OSO15OSO189235
14:00 -1.05410SO23OSO189235
15:00 -0.96520OSO30OSO189235
16:00 -1.06521SO30OSO189235
17:00 -1.56922SO30SO189235
18:00 -1.86124SO33SO189235
19:00 -2.66824SO32SO189235
20:00 -3.77316OSO31OSO189235
21:00 -5.88011SO20OSO189235
22:00 -5.85811SO18SO189235
23:00 -6.54411SO16SO188235
minuit -6.95410SO14SO188235

Graphique du 13-04-2019

 

Serveur OMMA